Location: ??????
(55.2000°N, 38.3000°E)
Time: 08:15:17
(UTC+00:00)

ADEOS II - Pass Details

Date: 15 November 2025
Orbit: 794 x 794 km, 98.8° (Epoch: 14 December)

Event Time Altitude Azimuth Distance (km) Brightness Sun altitude
Rises 00:15:32 0° 18° (NNE) 3,313 5.8 -39.5°
Reaches altitude 10° 00:17:54 10° 22° (NNE) 2,378 5.0 -39.2°
Enters shadow 00:19:09 18° 25° (NNE) 1,905 4.4 -39.0°
